Home   Weather   Poitiers   Past weeks

Flag for France Past Weather in Poitiers, Poitou-Charentes, France — Yesterday and Last 2 Weeks

Now
37 °F

Partly sunny.


Feels Like: 32 °F
Forecast: 27 / 36 °F
Wind: 7 mph from Northeast

Location: Poitiers Airport

Current Time: Jan 16, 2017 at 6:16:46 pm

Latest Report: Jan 16, 2017 at 5:30 pm


Visibility: N/A

Pressure: 30.27 "Hg

Humidity: 81%

Dew Point: 32 °F

Location of PoitiersLocation

Past Weather in Poitiers — Graph

°F

Poitiers Temperature Yesterday

Maximum temperature yesterday: 45 °F (at 10:30 pm)
Minimum temperature yesterday: 37 °F (at 1:30 am)
Average temperature yesterday: 40 °F

High & Low Weather Summary for the Past Weeks

 TemperatureHumidityPressure
High52 °F (Jan 12, 6:30 pm)100% (Jan 2, 3:30 am)30.66 "Hg (Jan 2, 3:30 am)
Low21 °F (Jan 7, 6:00 am)30% (Jan 7, 4:00 pm)29.65 "Hg (Jan 12, 6:00 pm)
Average39 °F87%30.28 "Hg
* Reported Jan 1 5:00 pm — Jan 16 5:00 pm, Poitiers, Weather by CustomWeather, © 2017

Note: Actual official high and low records may vary slightly from our data, if they occured in-between our weather recording intervals... More about our weather records

Advertising

Poitiers Weather History for the Previous 24 Hours

Scroll right to see more
 ConditionsComfort  
Time TempWeatherWind HumidityBarometerVisibility
5:00 pm
Mon, Jan 16
37 °FPartly sunny.6 mph81%30.27 "HgN/A
4:30 pm37 °FOvercast.8 mph81%30.27 "HgN/A
4:00 pm37 °FOvercast.7 mph81%30.27 "HgN/A
3:30 pm37 °FOvercast.7 mph81%30.27 "HgN/A
3:00 pm37 °FOvercast.8 mph81%30.27 "HgN/A
2:30 pm37 °FOvercast.9 mph87%30.27 "HgN/A
2:00 pm37 °FLow clouds.7 mph87%30.27 "HgN/A
1:30 pm37 °FLow clouds.9 mph93%30.27 "HgN/A
1:00 pm37 °FLow clouds.10 mph93%30.30 "HgN/A
12:30 pm37 °FMostly cloudy.9 mph93%30.27 "HgN/A
12:00 pm37 °FLow clouds.13 mph93%30.27 "HgN/A
11:30 am41 °FMostly cloudy.12 mph87%30.27 "HgN/A
11:00 am39 °FMore clouds than sun.13 mph87%30.27 "HgN/A
10:30 am39 °FOvercast.12 mph93%30.27 "HgN/A
10:00 am39 °FPartly sunny.13 mph93%30.24 "HgN/A
9:30 am41 °FMostly cloudy.10 mph87%30.24 "HgN/A
9:00 am41 °FCloudy.10 mph93%30.21 "HgN/A
8:30 am43 °FOvercast.15 mph81%30.21 "HgN/A
8:00 am43 °FOvercast.13 mph87%30.21 "HgN/A
7:30 am45 °FMostly cloudy.14 mph87%30.18 "HgN/A
7:00 am45 °FDrizzle. Mostly cloudy.12 mph93%30.18 "HgN/A
6:30 am46 °FLight rain. Overcast.15 mph93%30.18 "HgN/A
6:00 am46 °FPassing clouds.13 mph93%30.15 "HgN/A
5:30 am46 °FMostly cloudy.13 mph93%30.15 "HgN/A
5:00 am46 °FPassing clouds.12 mph93%30.15 "HgN/A
4:30 am46 °FMostly cloudy.12 mph93%30.15 "HgN/A
4:00 am46 °FPartly cloudy.10 mph93%30.15 "HgN/A
3:30 am46 °FMostly cloudy.12 mph93%30.15 "HgN/A
3:00 am46 °FDrizzle. Low clouds.12 mph93%30.15 "HgN/A
2:30 am46 °FLow clouds.13 mph93%30.15 "HgN/A
2:00 am46 °FLow clouds.8 mph93%30.15 "HgN/A
1:00 am46 °FLight rain. Low clouds.13 mph93%30.15 "HgN/A
12:30 am46 °FLow clouds.13 mph93%30.15 "HgN/A
12:00 am46 °FLow clouds.12 mph93%30.18 "HgN/A
11:30 pm
Sun, Jan 15
45 °FLight rain. Low clouds.10 mph100%30.18 "HgN/A
11:00 pm45 °FLight rain. Low clouds.12 mph100%30.18 "HgN/A
10:30 pm45 °FLight rain. Low clouds.7 mph93%30.18 "Hg4 mi
10:00 pm41 °FLight rain. Fog.3 mph100%30.18 "Hg3 mi
9:30 pm41 °FLight rain. Fog.3 mph100%30.18 "Hg2 mi
9:00 pm41 °FLight rain. Fog.5 mph100%30.18 "Hg2 mi
8:30 pm41 °FLight rain. Fog.3 mph93%30.21 "Hg2 mi
8:00 pm41 °FLight rain. Passing clouds.5 mph93%30.21 "Hg4 mi
7:30 pm41 °FLight rain. Passing clouds.5 mph93%30.21 "Hg6 mi
7:00 pm41 °FLight rain. Mostly cloudy.3 mph93%30.24 "HgN/A
6:30 pm41 °FLight rain. Passing clouds.3 mph93%30.24 "HgN/A
6:00 pm41 °FLight rain. Overcast.6 mph93%30.24 "HgN/A
Weather by CustomWeather, © 2017

See weather overviewHow to use our weather pages